Location: Boiro
(42.6475°N, 8.8834°W)
Time: 15:28:32
(UTC+02:00)

Explorer 7 - Pass Details

Date: 04 July 2022
Orbit: 482 x 668 km, 50.3° (Epoch: 15 August)

Event Time Altitude Azimuth Distance (km) Brightness Sun altitude
Rises 03:08:22 0° 290° (WNW) 3,003 10.7 -24.1°
Reaches altitude 10° 03:10:58 10° 300° (WNW) 2,078 10.0 -24.1°
Maximum altitude 03:15:17 32° 4° (N) 1,101 8.9 -24.0°
Drops below altitude 10° 03:19:28 10° 69° (ENE) 2,003 10.0 -23.8°
Sets 03:21:56 0° 79° (E) 2,878 10.8 -23.8°
